Terminal Aerodrome Forecast
Issued by NWS

Home | Current Version | Previous Version | Text Only | Print | Product List | Glossary Off
Versions: 1 2 3 4 5 6 7 8 9 10 11 12 13 14 15 16

000
FTUS43 KFGF 272053 AAA
TAFBJI
TAF AMD
KBJI 272053Z 2721/2818 13015G25KT P6SM VCSH OVC050
     FM280200 VRB04KT P6SM VCSH OVC035
     FM280800 VRB04KT P6SM SCT008 BKN020=

USA.gov is the U.S. government's official web portal to all federal, state and local government web resources and services.